Content
SEND FEEDBACK

Daily
Averages
Monthly
Summary
United States of America

STATEN ISLAND, NEW YORK


Home > North America > United States > New York
Elevation: 152 feet     Latitude: 40 35N     Longitude: 074 09W

WEATHER
 
SELECT A DAY
Number of Records: 193,924;   Date Range: 1/1/95 - 12/18/14
 
SHARE

PRINT THIS DATA

[ ← Previous Day ]
WEATHER ALMANAC - MAY 4, 2013
[ Next Day → ]
[ °C ]   °F
Weather ElementAverageHighLow
Temperature54.4 °F64 °F (11:51 am)44.1 °F (5:51 am)
Dewpoint41.9 °F45 °F (7:51 am)37.9 °F (10:51 am)
Humidity64.8 %89 % (4:51 am)40 % (10:51 am)
Barometer30.30 in30.35 in (1:51 am)30.26 in (5:51 pm)
Wind Speed7.6 mph13.8 mph (4:51 pm)
Wind Gust20.7 mph (4:51 pm)
Weather ElementAverage
Visibility10 mi
Wind DirectionESE (120 °)

Weather ElementTotal
Precipitation---
Heating Degree Days11 (Base 65)
Growing Degree Days4.1 (Base 50)
Averaged from 23 records on May 4, 2013
WEATHER CONDITIONS BREAKOUT
WIND DIRECTION BREAKOUT
WEATHER BY HOUR - MAY 4, 2013
[ °C ]   °F
Local TimeTemperatureDewpointHumidityBarometerVisibilityWind DirectionWind SpeedGust SpeedPrecipitationEventsConditions
1:51 AM48.9 °F43.0 °F80 %30.35 in10.0 miWNW (290°)3.5 mphPartly Cloudy
2:51 AM48.9 °F44.1 °F83 %30.33 in10.0 miNNW (340°)4.6 mphPartly Cloudy
3:51 AM48.9 °F44.1 °F83 %30.31 in10.0 miNNW (340°)4.6 mphScattered Clouds
4:51 AM46.0 °F43.0 °F89 %30.31 in10.0 miNNE (20°)5.8 mphPartly Cloudy
5:51 AM44.1 °F41.0 °F89 %30.31 in10.0 miNNE (20°)5.8 mphPartly Cloudy
6:51 AM48.9 °F44.1 °F83 %30.31 in10.0 miNNE (20°)6.9 mphPartly Cloudy
7:51 AM53.1 °F45.0 °F74 %30.32 in10.0 miNNE (30°)6.9 mphPartly Cloudy
8:51 AM57.0 °F43.0 °F59 %30.32 in10.0 miENE (60°)6.9 mphPartly Cloudy
9:51 AM60.1 °F39.0 °F46 %30.31 in10.0 miNNE (30°)9.2 mphPartly Cloudy
10:51 AM63.0 °F37.9 °F40 %30.31 in10.0 miNE (50°)10.4 mphPartly Cloudy
11:51 AM64.0 °F39.0 °F40 %30.30 in10.0 miCalmPartly Cloudy
12:51 PM63.0 °F43.0 °F48 %30.29 in10.0 miSE (140°)10.4 mphPartly Cloudy
1:51 PM63.0 °F43.0 °F48 %30.28 in10.0 miSSE (150°)11.5 mphPartly Cloudy
2:51 PM62.1 °F41.0 °F46 %30.27 in10.0 miSE (140°)10.4 mph18.4 mphPartly Cloudy
3:51 PM60.1 °F41.0 °F49 %30.27 in10.0 miSE (130°)10.4 mph17.3 mphPartly Cloudy
4:51 PM57.0 °F42.1 °F57 %30.27 in10.0 miSE (140°)13.8 mph20.7 mphPartly Cloudy
5:51 PM55.0 °F43.0 °F64 %30.26 in10.0 miSE (130°)11.5 mphPartly Cloudy
6:51 PM54.0 °F41.0 °F62 %30.27 in10.0 miSE (130°)8.1 mph16.1 mphPartly Cloudy
7:51 PM52.0 °F42.1 °F69 %30.27 in10.0 miSE (140°)9.2 mphPartly Cloudy
8:51 PM51.1 °F42.1 °F71 %30.29 in10.0 miSE (130°)6.9 mphPartly Cloudy
9:51 PM51.1 °F42.1 °F71 %30.30 in10.0 miSE (130°)4.6 mphPartly Cloudy
10:51 PM50.0 °F39.9 °F68 %30.30 in10.0 miEast (90°)6.9 mphClear
11:51 PM50.0 °F41.0 °F71 %30.30 in10.0 miESE (110°)5.8 mphClear
Hourly data recorded from KEWR, located miles away from Staten Island, New York







STORIES FROM OUR PARTNERS